Weather History for Windsor Locks, CT

Change the Weather History Date:

Tuesday, June 25, 2013

  Actual Average Record
Temperature  
Mean Temperature 80 °F 71 °F  
Max Temperature 92 °F 82 °F 95 °F (1943)
Min Temperature 67 °F 60 °F 50 °F (1979)
Degree Days  
Heating Degree Days 0 0  
Month to date heating degree days 33 39  
Since 1 June heating degree days 33 39  
Since 1 July heating degree days 5717 5997  
Cooling Degree Days 15 6  
Month to date cooling degree days 112 108  
Year to date cooling degree days 166 147  
Since 1 June cooling degree days 112 108  
Growing Degree Days 28 (Base 50)    
Moisture  
Dew Point 67 °F    
Average Humidity 69    
Maximum Humidity 93    
Minimum Humidity 44    
Precipitation  
Precipitation 0.01 in 0.12 in 2.09 in (1922)
Month to date precipitation 9.08 3.76  
Year to date precipitation 25.22 21.57  
Snow  
Snow 0.00 in 0.00 in 0.00 in (2002)
Month to date snowfall 0.0 0.0  
Since 1 June snowfall 0.0 0.0  
Since 1 July snowfall 56.9 40.5  
Snow Depth 0.00 in    
Sea Level Pressure  
Sea Level Pressure 29.86 in    
Wind  
Wind Speed 6 mph (SSW)    
Max Wind Speed 37 mph    
Max Gust Speed 46 mph    
Visibility 9 miles    
Events Rain , Thunderstorm    
T = Trace of Precipitation, MM = Missing Value Source: NWS Daily Summary

Daily Weather History Graph

Daily Weather History Graph

Search for Another Location

Airport:

Trip Planner

Search our weather history database for the weather conditions in past years. The results will help you decide how hot, cold, wet, or windy it might be!

Date:

Astronomy

Jun. 25, 2013 Rise Set
Actual Time 5:16 AM EDT 8:30 PM EDT
Civil Twilight 4:42 AM EDT 9:04 PM EDT
Nautical Twilight 3:57 AM EDT 9:48 PM EDT
Astronomical Twilight 3:04 AM EDT 10:42 PM EDT
Moon 10:10 PM EDT (6/25) 7:55 AM EDT (6/25)
Length of Visible Light 16h 22m
Length of Day
15h 13m
Waning Gibbous, 93% of the Moon is Illuminated
Jun 25
Waning Gibbous
Jun 30
Last Quarter
Jul 8
New
Jul 15
First Quarter
Jul 22
Full

Hourly Weather History & Observations

Time (EDT) Temp. Heat Index Dew Point Humidity Pressure Visibility Wind Dir Wind Speed Gust Speed Precip Events Conditions
12:51 AM 71.1 °F - 66.0 °F 84% 29.96 in 10.0 mi Calm Calm - N/A   Mostly Cloudy
1:51 AM 70.0 °F - 66.9 °F 90% 29.95 in 9.0 mi South 5.8 mph - N/A   Mostly Cloudy
2:51 AM 70.0 °F - 64.9 °F 84% 29.94 in 10.0 mi SSW 4.6 mph - N/A   Mostly Cloudy
3:51 AM 69.1 °F - 66.0 °F 90% 29.94 in 9.0 mi ESE 3.5 mph - N/A   Mostly Cloudy
4:51 AM 68.0 °F - 64.9 °F 90% 29.94 in 7.0 mi Calm Calm - N/A   Mostly Cloudy
5:51 AM 68.0 °F - 66.0 °F 93% 29.93 in 5.0 mi SW 3.5 mph - N/A   Mostly Cloudy
6:51 AM 70.0 °F - 66.0 °F 87% 29.93 in 7.0 mi SSW 3.5 mph - N/A   Mostly Cloudy
7:51 AM 72.0 °F - 66.0 °F 81% 29.93 in 9.0 mi SSW 4.6 mph - N/A   Mostly Cloudy
8:51 AM 77.0 °F - 66.0 °F 69% 29.91 in 10.0 mi Variable 3.5 mph - N/A   Mostly Cloudy
9:51 AM 80.1 °F 82.7 °F 68.0 °F 67% 29.91 in 10.0 mi South 4.6 mph - N/A   Mostly Cloudy
10:51 AM 84.0 °F 87.8 °F 69.1 °F 61% 29.91 in 10.0 mi South 4.6 mph - N/A   Mostly Cloudy
11:51 AM 87.1 °F 91.3 °F 69.1 °F 55% 29.90 in 10.0 mi South 6.9 mph - N/A   Mostly Cloudy
12:51 PM 89.1 °F 91.0 °F 64.9 °F 45% 29.87 in 10.0 mi South 12.7 mph - N/A   Mostly Cloudy
1:51 PM 90.0 °F 93.6 °F 68.0 °F 48% 29.84 in 10.0 mi SW 6.9 mph - N/A   Mostly Cloudy
2:51 PM 91.0 °F 93.8 °F 66.0 °F 44% 29.82 in 10.0 mi SSW 15.0 mph - N/A   Mostly Cloudy
3:51 PM 91.0 °F 94.3 °F 66.9 °F 45% 29.78 in 10.0 mi SSW 16.1 mph 21.9 mph N/A   Scattered Clouds
4:51 PM 90.0 °F 92.8 °F 66.9 °F 46% 29.77 in 10.0 mi SW 12.7 mph 20.7 mph N/A   Scattered Clouds
5:51 PM 87.1 °F 90.6 °F 68.0 °F 53% 29.75 in 9.0 mi SW 11.5 mph - N/A   Mostly Cloudy
6:21 PM 82.4 °F 83.9 °F 64.4 °F 54% 29.78 in 9.0 mi West 31.1 mph 46.0 mph 0.00 in Rain , Thunderstorm Light Thunderstorms and Rain
6:51 PM 73.0 °F - 69.1 °F 87% 29.76 in 9.0 mi WSW 9.2 mph - 0.01 in Rain , Thunderstorm Light Thunderstorms and Rain
7:08 PM 73.4 °F - 69.8 °F 88% 29.76 in 9.0 mi SW 3.5 mph - 0.00 in   Mostly Cloudy
7:51 PM 75.0 °F - 69.1 °F 82% 29.77 in 9.0 mi SW 3.5 mph - 0.00 in   Mostly Cloudy
8:51 PM 75.9 °F - 69.1 °F 79% 29.77 in 10.0 mi NW 4.6 mph - N/A   Mostly Cloudy
9:51 PM 75.0 °F - 69.1 °F 82% 29.78 in 9.0 mi Calm Calm - N/A   Scattered Clouds
10:51 PM 73.9 °F - 69.1 °F 85% 29.78 in 9.0 mi Calm Calm - N/A   Scattered Clouds
11:51 PM 73.0 °F - 69.1 °F 87% 29.79 in 10.0 mi Calm Calm - N/A   Scattered Clouds